RYR0599 EGGW-LEMI

Flight info

Callsign RYR0599
Flight time 2h 12m
Altitude 37000
Route RODNI N27 ICTAM Q63 CPT N859 VAPID UN859 SOPIL DCT BALAN DCT LMG DCT PIMQO DCT AGN DCT ANETO DCT TURUV DCT GRAUS DCT LOBAR DCT SEROX DCT CASPE DCT MLA DCT CRETA DCT RIMES DCT SAURA DCT TATOS DCT PLANA DCT VLC L34 ALT
Aircraft B38M/M-SDE1FGHILORVWXY/HB1

Departure

Time 2026-04-20 07:32
Airport London Luton Airport (EGGW)

Arrival

Time 2026-04-20 09:45
Airport Region of Murcia International Airport (LEMI)
Time Latitude Longitude Altitude Speed Heading
2026-04-20 07:21 51.87959 -0.37906 536 ft 0 kts 127°
2026-04-20 07:23 51.87973 -0.37935 536 ft 4 kts 129°
2026-04-20 07:23 51.87988 -0.37963 536 ft 2 kts 145°
2026-04-20 07:23 51.87998 -0.37965 536 ft 2 kts 223°
2026-04-20 07:24 51.88004 -0.37957 536 ft 0 kts 216°
2026-04-20 07:28 51.87979 -0.37986 536 ft 8 kts 213°
2026-04-20 07:28 51.87919 -0.38015 536 ft 10 kts 184°
2026-04-20 07:28 51.87845 -0.37982 536 ft 12 kts 146°
2026-04-20 07:28 51.87789 -0.37869 536 ft 14 kts 116°
2026-04-20 07:29 51.87747 -0.37716 536 ft 16 kts 116°
2026-04-20 07:29 51.87694 -0.37548 536 ft 18 kts 121°
2026-04-20 07:29 51.87608 -0.37456 539 ft 14 kts 175°
2026-04-20 07:29 51.87516 -0.37513 539 ft 16 kts 237°
2026-04-20 07:30 51.87480 -0.37693 539 ft 18 kts 255°
2026-04-20 07:30 51.87446 -0.37894 539 ft 19 kts 255°
2026-04-20 07:30 51.87385 -0.38049 538 ft 18 kts 211°
2026-04-20 07:30 51.87276 -0.38103 535 ft 11 kts 161°
2026-04-20 07:31 51.87258 -0.38037 536 ft 0 kts 74°
2026-04-20 07:31 51.87293 -0.37835 540 ft 51 kts 74°
2026-04-20 07:31 51.87468 -0.36823 542 ft 133 kts 74°
2026-04-20 07:32 51.87768 -0.35080 840 ft 175 kts 74°
2026-04-20 07:32 51.88105 -0.33210 2061 ft 170 kts 72°
2026-04-20 07:32 51.88436 -0.31365 3180 ft 172 kts 72°
2026-04-20 07:32 51.88776 -0.29459 3911 ft 186 kts 72°
2026-04-20 07:33 51.89125 -0.27344 3905 ft 204 kts 78°
2026-04-20 07:33 51.89000 -0.24983 3898 ft 224 kts 111°
2026-04-20 07:33 51.87960 -0.23055 4055 ft 238 kts 147°
2026-04-20 07:33 51.86394 -0.22154 5101 ft 247 kts 172°
2026-04-20 07:34 51.84657 -0.22610 5903 ft 266 kts 206°
2026-04-20 07:34 51.83254 -0.24654 6677 ft 281 kts 241°
2026-04-20 07:34 51.82529 -0.27560 7801 ft 279 kts 250°
2026-04-20 07:35 51.80980 -0.33397 9930 ft 285 kts 249°
2026-04-20 07:35 51.80186 -0.36347 10876 ft 290 kts 249°
2026-04-20 07:35 51.79353 -0.39406 11501 ft 306 kts 249°
2026-04-20 07:35 51.78465 -0.42626 12084 ft 321 kts 249°
2026-04-20 07:36 51.77540 -0.45981 12769 ft 330 kts 249°
2026-04-20 07:36 51.76618 -0.49373 13790 ft 330 kts 250°
2026-04-20 07:36 51.75697 -0.52780 14550 ft 335 kts 250°
2026-04-20 07:36 51.74759 -0.56243 15361 ft 337 kts 250°
2026-04-20 07:37 51.73819 -0.59726 16128 ft 340 kts 250°
2026-04-20 07:37 51.72864 -0.63253 16876 ft 344 kts 250°
2026-04-20 07:37 51.71905 -0.66795 17642 ft 346 kts 251°
2026-04-20 07:37 51.70940 -0.70355 18370 ft 349 kts 251°
2026-04-20 07:38 51.69971 -0.73923 18994 ft 352 kts 251°
2026-04-20 07:38 51.68974 -0.77593 19655 ft 353 kts 251°
2026-04-20 07:38 51.68002 -0.81170 20308 ft 354 kts 252°
2026-04-20 07:38 51.67000 -0.84848 20947 ft 355 kts 252°
2026-04-20 07:39 51.66017 -0.88453 21578 ft 357 kts 252°
2026-04-20 07:39 51.65017 -0.92116 22206 ft 358 kts 253°
2026-04-20 07:39 51.64012 -0.95792 22803 ft 360 kts 253°
2026-04-20 07:39 51.62925 -0.99443 23394 ft 368 kts 245°
2026-04-20 07:40 51.61211 -1.02647 24066 ft 378 kts 233°
2026-04-20 07:40 51.59377 -1.05636 24501 ft 381 kts 234°
2026-04-20 07:40 51.57507 -1.08664 24979 ft 382 kts 233°
2026-04-20 07:40 51.55620 -1.11690 25466 ft 383 kts 233°
2026-04-20 07:41 51.53730 -1.14704 25919 ft 385 kts 233°
2026-04-20 07:41 51.51659 -1.17506 26394 ft 399 kts 219°
2026-04-20 07:41 51.49034 -1.19217 26943 ft 418 kts 200°
2026-04-20 07:41 51.46072 -1.19480 27429 ft 438 kts 180°
2026-04-20 07:42 51.43095 -1.18188 27878 ft 454 kts 161°
2026-04-20 07:42 51.40312 -1.15655 28312 ft 461 kts 154°
2026-04-20 07:42 51.37463 -1.13348 28612 ft 459 kts 162°
2026-04-20 07:42 51.34550 -1.11218 28970 ft 462 kts 161°
2026-04-20 07:43 51.31632 -1.09078 29354 ft 464 kts 162°
2026-04-20 07:43 51.28687 -1.06923 29712 ft 466 kts 162°
2026-04-20 07:43 51.25738 -1.04767 30089 ft 467 kts 162°
2026-04-20 07:43 51.22770 -1.02601 30442 ft 469 kts 162°
2026-04-20 07:44 51.19802 -1.00436 30741 ft 471 kts 162°
2026-04-20 07:44 51.16815 -0.98262 31034 ft 473 kts 162°
2026-04-20 07:44 51.13821 -0.96086 31320 ft 474 kts 161°
2026-04-20 07:44 51.10811 -0.93902 31606 ft 476 kts 161°
2026-04-20 07:45 51.07796 -0.91717 31904 ft 478 kts 161°
2026-04-20 07:45 51.04796 -0.89546 32186 ft 479 kts 161°
2026-04-20 07:45 51.01721 -0.87325 32453 ft 481 kts 161°
2026-04-20 07:45 50.98704 -0.85148 32726 ft 483 kts 161°
2026-04-20 07:46 50.95640 -0.82940 32995 ft 485 kts 161°
2026-04-20 07:46 50.92557 -0.80722 33261 ft 487 kts 161°
2026-04-20 07:46 50.89468 -0.78503 33514 ft 489 kts 161°
2026-04-20 07:46 50.86370 -0.76270 33783 ft 491 kts 159°
2026-04-20 07:47 50.83406 -0.73508 34152 ft 495 kts 151°
2026-04-20 07:47 50.80532 -0.70568 34478 ft 494 kts 152°
2026-04-20 07:47 50.77630 -0.67624 34745 ft 494 kts 151°
2026-04-20 07:47 50.74752 -0.64700 35071 ft 492 kts 151°
2026-04-20 07:48 50.71879 -0.61783 35413 ft 490 kts 151°
2026-04-20 07:48 50.69009 -0.58875 35731 ft 489 kts 151°
2026-04-20 07:48 50.66156 -0.55987 36044 ft 487 kts 150°
2026-04-20 07:48 50.63313 -0.53115 36341 ft 486 kts 150°
2026-04-20 07:49 50.60464 -0.50240 36625 ft 485 kts 150°
2026-04-20 07:49 50.57635 -0.47389 36925 ft 483 kts 150°
2026-04-20 07:49 50.54800 -0.44536 37197 ft 482 kts 150°
2026-04-20 07:49 50.51981 -0.41705 37307 ft 482 kts 150°
2026-04-20 07:50 50.46385 -0.36095 37301 ft 479 kts 150°
2026-04-20 07:50 50.40758 -0.30469 37293 ft 479 kts 150°
2026-04-20 07:51 50.35145 -0.24873 37285 ft 478 kts 150°
2026-04-20 07:51 50.29531 -0.19292 37284 ft 478 kts 150°
2026-04-20 07:52 50.23917 -0.13728 37276 ft 477 kts 150°
2026-04-20 07:52 50.18312 -0.08187 37273 ft 477 kts 150°
2026-04-20 07:53 50.12703 -0.02655 37267 ft 477 kts 150°
2026-04-20 07:53 50.09789 -0.00288 37247 ft 469 kts 165°
2026-04-20 07:53 50.06670 0.01102 37274 ft 467 kts 168°
2026-04-20 07:54 50.00391 0.03753 37268 ft 467 kts 169°
2026-04-20 07:54 49.94147 0.06246 37259 ft 466 kts 169°
2026-04-20 07:55 49.87819 0.08731 37249 ft 466 kts 169°
2026-04-20 07:55 49.81578 0.11173 37246 ft 465 kts 169°
2026-04-20 07:56 49.75303 0.13622 37245 ft 465 kts 169°
2026-04-20 07:56 49.69032 0.16070 37239 ft 465 kts 169°
2026-04-20 07:57 49.62768 0.18603 37235 ft 465 kts 169°
2026-04-20 07:57 49.56510 0.21119 37232 ft 465 kts 169°
2026-04-20 07:58 49.50252 0.23627 37236 ft 465 kts 169°
2026-04-20 07:58 49.43996 0.26127 37234 ft 464 kts 169°
2026-04-20 07:59 49.37751 0.28617 37237 ft 464 kts 169°
2026-04-20 07:59 49.31505 0.31117 37235 ft 464 kts 168°
2026-04-20 08:00 49.25273 0.33762 37232 ft 464 kts 168°
2026-04-20 08:00 49.19045 0.36381 37230 ft 464 kts 168°
2026-04-20 08:01 49.13876 0.38549 37229 ft 464 kts 168°
2026-04-20 08:01 49.07644 0.41156 37226 ft 464 kts 168°
2026-04-20 08:02 49.01407 0.43758 37216 ft 465 kts 168°
2026-04-20 08:02 48.95178 0.46350 37213 ft 465 kts 168°
2026-04-20 08:03 48.88929 0.48944 37217 ft 466 kts 168°
2026-04-20 08:03 48.82674 0.51534 37221 ft 466 kts 168°
2026-04-20 08:04 48.76404 0.54044 37211 ft 466 kts 169°
2026-04-20 08:04 48.70141 0.56506 37205 ft 466 kts 169°
2026-04-20 08:05 48.63850 0.58978 37203 ft 467 kts 169°
2026-04-20 08:05 48.57568 0.61440 37195 ft 467 kts 169°
2026-04-20 08:06 48.51280 0.63934 37197 ft 467 kts 169°
2026-04-20 08:06 48.45047 0.66473 37190 ft 467 kts 169°
2026-04-20 08:07 48.38771 0.69014 37192 ft 467 kts 169°
2026-04-20 08:07 48.32492 0.71549 37183 ft 467 kts 169°
2026-04-20 08:08 48.26225 0.74070 37184 ft 466 kts 169°
2026-04-20 08:08 48.19948 0.76543 37180 ft 466 kts 170°
2026-04-20 08:09 48.13680 0.79011 37170 ft 466 kts 170°
2026-04-20 08:09 48.07407 0.81475 37167 ft 466 kts 170°
2026-04-20 08:10 48.01146 0.83928 37175 ft 465 kts 170°
2026-04-20 08:10 47.94884 0.86376 37168 ft 465 kts 170°
2026-04-20 08:11 47.88613 0.88820 37165 ft 465 kts 170°
2026-04-20 08:11 47.82398 0.91236 37165 ft 465 kts 170°
2026-04-20 08:12 47.76137 0.93662 37163 ft 465 kts 171°
2026-04-20 08:12 47.69823 0.96103 37150 ft 465 kts 171°
2026-04-20 08:13 47.63557 0.98518 37154 ft 465 kts 171°
2026-04-20 08:13 47.57342 1.00909 37154 ft 465 kts 171°
2026-04-20 08:14 47.51077 1.03313 37155 ft 465 kts 171°
2026-04-20 08:14 47.44802 1.05709 37155 ft 465 kts 172°
2026-04-20 08:15 47.41647 1.06286 37151 ft 452 kts 187°
2026-04-20 08:15 47.38495 1.06240 37135 ft 454 kts 186°
2026-04-20 08:15 47.32181 1.06179 37148 ft 454 kts 187°
2026-04-20 08:16 47.25874 1.06043 37141 ft 453 kts 187°
2026-04-20 08:16 47.19568 1.05896 37139 ft 453 kts 187°
2026-04-20 08:17 47.13257 1.05749 37128 ft 453 kts 187°
2026-04-20 08:17 47.06948 1.05601 37127 ft 453 kts 187°
2026-04-20 08:18 47.00643 1.05389 37125 ft 452 kts 188°
2026-04-20 08:18 46.94358 1.05117 37115 ft 453 kts 188°
2026-04-20 08:19 46.88095 1.04854 37112 ft 452 kts 188°
2026-04-20 08:19 46.81810 1.04590 37109 ft 452 kts 188°
2026-04-20 08:20 46.75524 1.04328 37107 ft 452 kts 188°
2026-04-20 08:20 46.69194 1.04064 37099 ft 451 kts 188°
2026-04-20 08:21 46.62968 1.03805 37094 ft 451 kts 188°
2026-04-20 08:21 46.56696 1.03545 37090 ft 450 kts 188°
2026-04-20 08:22 46.50432 1.03357 37088 ft 451 kts 186°
2026-04-20 08:22 46.44152 1.03300 37079 ft 451 kts 186°
2026-04-20 08:23 46.37873 1.03226 37078 ft 450 kts 186°
2026-04-20 08:23 46.31609 1.03151 37066 ft 450 kts 186°
2026-04-20 08:24 46.25342 1.03076 37059 ft 450 kts 186°
2026-04-20 08:24 46.19084 1.03002 37054 ft 450 kts 186°
2026-04-20 08:25 46.12840 1.02927 37052 ft 449 kts 186°
2026-04-20 08:25 46.06583 1.02853 37041 ft 449 kts 186°
2026-04-20 08:26 46.00379 1.02779 37043 ft 449 kts 186°
2026-04-20 08:26 45.94143 1.02705 37041 ft 448 kts 186°
2026-04-20 08:27 45.87895 1.02631 37040 ft 448 kts 186°
2026-04-20 08:27 45.81659 1.02631 37038 ft 451 kts 180°
2026-04-20 08:28 45.75417 1.04163 37025 ft 456 kts 175°
2026-04-20 08:28 45.69174 1.05758 37034 ft 456 kts 175°
2026-04-20 08:29 45.62919 1.07364 37028 ft 456 kts 175°
2026-04-20 08:29 45.56674 1.08963 37020 ft 456 kts 175°
2026-04-20 08:30 45.50432 1.10559 37018 ft 456 kts 175°
2026-04-20 08:30 45.44193 1.12150 37010 ft 456 kts 175°
2026-04-20 08:31 45.37950 1.13739 37013 ft 456 kts 175°
2026-04-20 08:31 45.31708 1.15323 37014 ft 455 kts 175°
2026-04-20 08:32 45.25484 1.16900 37020 ft 455 kts 175°
2026-04-20 08:32 45.19236 1.18479 37017 ft 455 kts 175°
2026-04-20 08:33 45.16158 1.18921 37001 ft 445 kts 189°
2026-04-20 08:33 45.10100 1.17704 37003 ft 440 kts 194°
2026-04-20 08:34 45.04059 1.16249 37019 ft 440 kts 195°
2026-04-20 08:34 44.98031 1.14721 37021 ft 440 kts 195°
2026-04-20 08:35 44.92015 1.13184 37014 ft 440 kts 195°
2026-04-20 08:35 44.85998 1.11649 37012 ft 439 kts 195°
2026-04-20 08:36 44.79981 1.10116 37016 ft 439 kts 195°
2026-04-20 08:36 44.73997 1.08596 37014 ft 439 kts 195°
2026-04-20 08:37 44.67984 1.07071 37015 ft 439 kts 195°
2026-04-20 08:37 44.61970 1.05549 37018 ft 439 kts 195°
2026-04-20 08:38 44.55960 1.04031 37016 ft 439 kts 195°
2026-04-20 08:38 44.49940 1.02514 37016 ft 439 kts 195°
2026-04-20 08:39 44.43936 1.01005 37011 ft 439 kts 195°
2026-04-20 08:39 44.37918 0.99495 37008 ft 438 kts 195°
2026-04-20 08:40 44.31909 0.97990 37012 ft 439 kts 195°
2026-04-20 08:40 44.25904 0.96489 37014 ft 438 kts 195°
2026-04-20 08:41 44.19907 0.94994 37014 ft 438 kts 195°
2026-04-20 08:41 44.13904 0.93500 37018 ft 438 kts 195°
2026-04-20 08:42 44.07939 0.92019 37016 ft 438 kts 195°
2026-04-20 08:42 44.01933 0.90530 37019 ft 438 kts 195°
2026-04-20 08:43 43.95942 0.89048 37019 ft 438 kts 195°
2026-04-20 08:43 43.89933 0.87561 37021 ft 438 kts 196°
2026-04-20 08:44 43.83965 0.85952 37020 ft 437 kts 196°
2026-04-20 08:44 43.77981 0.84349 37020 ft 437 kts 196°
2026-04-20 08:45 43.72013 0.82757 37028 ft 437 kts 196°
2026-04-20 08:45 43.66032 0.81165 37028 ft 437 kts 196°
2026-04-20 08:46 43.60066 0.79579 37025 ft 437 kts 196°
2026-04-20 08:46 43.54136 0.78007 37027 ft 436 kts 195°
2026-04-20 08:47 43.48172 0.76428 37038 ft 436 kts 195°
2026-04-20 08:47 43.42214 0.74854 37031 ft 436 kts 195°
2026-04-20 08:48 43.36254 0.73283 37028 ft 436 kts 195°
2026-04-20 08:48 43.30292 0.71714 37032 ft 436 kts 195°
2026-04-20 08:49 43.24330 0.70148 37037 ft 437 kts 195°
2026-04-20 08:49 43.18352 0.68582 37047 ft 436 kts 195°
2026-04-20 08:50 43.12393 0.67024 37044 ft 436 kts 195°
2026-04-20 08:50 43.06435 0.65469 37051 ft 436 kts 195°
2026-04-20 08:51 43.00467 0.63914 37061 ft 436 kts 195°
2026-04-20 08:51 42.94509 0.62365 37059 ft 436 kts 195°
2026-04-20 08:52 42.88569 0.60824 37085 ft 435 kts 195°
2026-04-20 08:52 42.82617 0.59282 37051 ft 434 kts 195°
2026-04-20 08:53 42.76700 0.57752 37052 ft 435 kts 195°
2026-04-20 08:53 42.70755 0.56219 37066 ft 436 kts 195°
2026-04-20 08:54 42.64799 0.54685 37079 ft 435 kts 195°
2026-04-20 08:54 42.58853 0.53157 37079 ft 435 kts 195°
2026-04-20 08:55 42.52892 0.51627 37064 ft 436 kts 195°
2026-04-20 08:55 42.46936 0.50102 37063 ft 435 kts 195°
2026-04-20 08:56 42.40988 0.48582 37062 ft 435 kts 195°
2026-04-20 08:56 42.35043 0.47063 37052 ft 435 kts 195°
2026-04-20 08:57 42.30089 0.45801 37052 ft 435 kts 195°
2026-04-20 08:57 42.24141 0.44287 37046 ft 436 kts 195°
2026-04-20 08:58 42.18187 0.42775 37051 ft 436 kts 195°
2026-04-20 08:58 42.12227 0.41264 37042 ft 435 kts 195°
2026-04-20 08:59 42.06272 0.39757 37037 ft 435 kts 195°
2026-04-20 08:59 42.00314 0.38252 37034 ft 435 kts 194°
2026-04-20 09:00 41.94399 0.36762 37034 ft 435 kts 194°
2026-04-20 09:00 41.88444 0.35265 37027 ft 435 kts 194°
2026-04-20 09:01 41.82494 0.33772 37022 ft 435 kts 194°
2026-04-20 09:01 41.76534 0.32279 37020 ft 435 kts 194°
2026-04-20 09:02 41.70582 0.30790 37022 ft 435 kts 194°
2026-04-20 09:02 41.64625 0.29303 37024 ft 435 kts 194°
2026-04-20 09:03 41.58678 0.27822 37024 ft 435 kts 194°
2026-04-20 09:03 41.52752 0.26348 37017 ft 435 kts 194°
2026-04-20 09:04 41.46795 0.24871 37022 ft 435 kts 194°
2026-04-20 09:04 41.40840 0.23395 37023 ft 435 kts 194°
2026-04-20 09:05 41.34891 0.21924 37019 ft 435 kts 194°
2026-04-20 09:05 41.28934 0.20454 37013 ft 435 kts 194°
2026-04-20 09:06 41.22978 0.18987 37015 ft 435 kts 194°
2026-04-20 09:06 41.17014 0.17521 37017 ft 436 kts 194°
2026-04-20 09:07 41.11135 0.15742 37035 ft 432 kts 200°
2026-04-20 09:07 41.05367 0.13451 37024 ft 433 kts 200°
2026-04-20 09:08 40.99615 0.11137 37020 ft 432 kts 200°
2026-04-20 09:08 40.93889 0.08832 37016 ft 433 kts 200°
2026-04-20 09:09 40.88131 0.06518 37017 ft 432 kts 200°
2026-04-20 09:09 40.82375 0.04210 37016 ft 432 kts 200°
2026-04-20 09:10 40.76574 0.01888 37014 ft 432 kts 200°
2026-04-20 09:10 40.70858 -0.00395 37015 ft 432 kts 200°
2026-04-20 09:11 40.65102 -0.02691 37009 ft 432 kts 200°
2026-04-20 09:11 40.59356 -0.04979 37022 ft 432 kts 200°
2026-04-20 09:12 40.53604 -0.07264 37035 ft 432 kts 200°
2026-04-20 09:12 40.47846 -0.09549 37045 ft 432 kts 200°
2026-04-20 09:13 40.42100 -0.11825 37059 ft 431 kts 200°
2026-04-20 09:13 40.36347 -0.14099 37064 ft 432 kts 200°
2026-04-20 09:14 40.30603 -0.16366 37071 ft 432 kts 200°
2026-04-20 09:14 40.24847 -0.18634 37065 ft 432 kts 200°
2026-04-20 09:15 40.19129 -0.20882 37059 ft 432 kts 200°
2026-04-20 09:15 40.13350 -0.23150 37045 ft 432 kts 200°
2026-04-20 09:16 40.07629 -0.25392 37035 ft 432 kts 200°
2026-04-20 09:16 40.01872 -0.27644 37024 ft 432 kts 200°
2026-04-20 09:17 39.96122 -0.29887 37013 ft 432 kts 200°
2026-04-20 09:17 39.90356 -0.32133 37016 ft 432 kts 200°
2026-04-20 09:18 39.84602 -0.34372 37008 ft 432 kts 200°
2026-04-20 09:18 39.78853 -0.36605 36938 ft 428 kts 200°
2026-04-20 09:18 39.76020 -0.37703 36741 ft 422 kts 200°
2026-04-20 09:19 39.73232 -0.38784 36314 ft 417 kts 200°
2026-04-20 09:19 39.70459 -0.39858 35809 ft 414 kts 200°
2026-04-20 09:19 39.67701 -0.40925 35363 ft 411 kts 200°
2026-04-20 09:19 39.64979 -0.41977 34912 ft 407 kts 200°
2026-04-20 09:20 39.62259 -0.43028 34391 ft 406 kts 200°
2026-04-20 09:20 39.59565 -0.44068 33862 ft 405 kts 200°
2026-04-20 09:20 39.56859 -0.45111 33292 ft 404 kts 200°
2026-04-20 09:20 39.54190 -0.46140 32842 ft 399 kts 200°
2026-04-20 09:21 39.51541 -0.47160 32415 ft 395 kts 200°
2026-04-20 09:21 39.48944 -0.48123 31941 ft 393 kts 195°
2026-04-20 09:21 39.46201 -0.48471 31401 ft 397 kts 185°
2026-04-20 09:21 39.43469 -0.48656 31010 ft 391 kts 187°
2026-04-20 09:22 39.40777 -0.48864 30629 ft 386 kts 186°
2026-04-20 09:22 39.38102 -0.49063 30198 ft 384 kts 186°
2026-04-20 09:22 39.35440 -0.49258 29701 ft 382 kts 186°
2026-04-20 09:22 39.32796 -0.49450 29229 ft 379 kts 186°
2026-04-20 09:23 39.30175 -0.49640 28788 ft 375 kts 186°
2026-04-20 09:23 39.27585 -0.49827 28372 ft 371 kts 186°
2026-04-20 09:23 39.25026 -0.50012 27942 ft 368 kts 186°
2026-04-20 09:23 39.22465 -0.50197 27465 ft 368 kts 186°
2026-04-20 09:24 39.19909 -0.50382 27002 ft 368 kts 186°
2026-04-20 09:24 39.17356 -0.50566 26548 ft 367 kts 186°
2026-04-20 09:24 39.14802 -0.50750 26095 ft 367 kts 186°
2026-04-20 09:24 39.12256 -0.50933 25659 ft 367 kts 186°
2026-04-20 09:25 39.09710 -0.51117 25224 ft 366 kts 186°
2026-04-20 09:25 39.07168 -0.51300 24801 ft 365 kts 186°
2026-04-20 09:25 39.04640 -0.51481 24385 ft 363 kts 186°
2026-04-20 09:25 39.02124 -0.51662 23979 ft 361 kts 187°
2026-04-20 09:26 38.99624 -0.51841 23564 ft 360 kts 187°
2026-04-20 09:26 38.97124 -0.52020 23079 ft 358 kts 186°
2026-04-20 09:26 38.94649 -0.52197 22607 ft 356 kts 186°
2026-04-20 09:26 38.92181 -0.52373 22140 ft 354 kts 186°
2026-04-20 09:27 38.89732 -0.52549 21680 ft 352 kts 186°
2026-04-20 09:27 38.87288 -0.52724 21227 ft 350 kts 186°
2026-04-20 09:27 38.84863 -0.52897 20777 ft 349 kts 186°
2026-04-20 09:27 38.82472 -0.53068 20340 ft 347 kts 186°
2026-04-20 09:28 38.80033 -0.53242 19890 ft 345 kts 186°
2026-04-20 09:28 38.77641 -0.53412 19470 ft 344 kts 185°
2026-04-20 09:28 38.75262 -0.53582 19045 ft 343 kts 185°
2026-04-20 09:28 38.72908 -0.53750 18628 ft 342 kts 185°
2026-04-20 09:29 38.70538 -0.53919 18188 ft 341 kts 185°
2026-04-20 09:29 38.68187 -0.54086 17726 ft 334 kts 185°
2026-04-20 09:29 38.65909 -0.54249 17278 ft 323 kts 185°
2026-04-20 09:29 38.63691 -0.54406 16830 ft 316 kts 185°
2026-04-20 09:30 38.61515 -0.54561 16374 ft 312 kts 185°
2026-04-20 09:30 38.59359 -0.54714 15918 ft 309 kts 185°
2026-04-20 09:30 38.57212 -0.54866 15485 ft 308 kts 185°
2026-04-20 09:30 38.55079 -0.55017 15032 ft 306 kts 185°
2026-04-20 09:31 38.52959 -0.55167 14606 ft 305 kts 185°
2026-04-20 09:31 38.50851 -0.55317 14174 ft 303 kts 185°
2026-04-20 09:31 38.48751 -0.55466 13753 ft 301 kts 185°
2026-04-20 09:31 38.46661 -0.55613 13275 ft 302 kts 185°
2026-04-20 09:32 38.44549 -0.55762 12810 ft 305 kts 184°
2026-04-20 09:32 38.42424 -0.55911 12357 ft 306 kts 184°
2026-04-20 09:32 38.40301 -0.56061 11895 ft 306 kts 184°
2026-04-20 09:32 38.38181 -0.56210 11454 ft 306 kts 184°
2026-04-20 09:33 38.36046 -0.56360 11006 ft 306 kts 183°
2026-04-20 09:33 38.33922 -0.56510 10574 ft 306 kts 183°
2026-04-20 09:33 38.31795 -0.56660 10142 ft 306 kts 183°
2026-04-20 09:33 38.29686 -0.56809 9991 ft 296 kts 182°
2026-04-20 09:34 38.27727 -0.57240 9982 ft 282 kts 202°
2026-04-20 09:34 38.26120 -0.58603 9636 ft 280 kts 227°
2026-04-20 09:34 38.23874 -0.62464 9342 ft 259 kts 234°
2026-04-20 09:35 38.22836 -0.64308 9045 ft 256 kts 234°
2026-04-20 09:35 38.21577 -0.65898 8625 ft 257 kts 209°
2026-04-20 09:35 38.19934 -0.66714 8372 ft 253 kts 197°
2026-04-20 09:35 38.18249 -0.67389 8095 ft 255 kts 196°
2026-04-20 09:36 38.16547 -0.68049 7797 ft 255 kts 196°
2026-04-20 09:36 38.14870 -0.68768 7487 ft 254 kts 207°
2026-04-20 09:36 38.13512 -0.70169 7191 ft 252 kts 225°
2026-04-20 09:36 38.12264 -0.71739 6907 ft 251 kts 224°
2026-04-20 09:37 38.11029 -0.73289 6643 ft 248 kts 224°
2026-04-20 09:37 38.09814 -0.74819 6378 ft 244 kts 224°
2026-04-20 09:37 38.08621 -0.76329 6154 ft 242 kts 224°
2026-04-20 09:37 38.07431 -0.77829 5890 ft 239 kts 224°
2026-04-20 09:38 38.06254 -0.79312 5646 ft 237 kts 224°
2026-04-20 09:38 38.05090 -0.80783 5387 ft 235 kts 224°
2026-04-20 09:38 38.03934 -0.82241 5141 ft 233 kts 224°
2026-04-20 09:38 38.02785 -0.83691 4902 ft 232 kts 224°
2026-04-20 09:39 38.01643 -0.85130 4681 ft 230 kts 224°
2026-04-20 09:39 38.00515 -0.86554 4453 ft 228 kts 224°
2026-04-20 09:39 37.99394 -0.87965 4196 ft 226 kts 224°
2026-04-20 09:39 37.98290 -0.89357 3944 ft 223 kts 224°
2026-04-20 09:40 37.97196 -0.90734 3701 ft 221 kts 225°
2026-04-20 09:40 37.96114 -0.92096 3455 ft 218 kts 225°
2026-04-20 09:40 37.95062 -0.93443 3202 ft 216 kts 226°
2026-04-20 09:40 37.94017 -0.94798 2959 ft 214 kts 225°
2026-04-20 09:41 37.92979 -0.96140 2725 ft 212 kts 225°
2026-04-20 09:41 37.91959 -0.97458 2505 ft 207 kts 225°
2026-04-20 09:41 37.90974 -0.98730 2483 ft 200 kts 225°
2026-04-20 09:41 37.89992 -0.99996 2490 ft 202 kts 225°
2026-04-20 09:42 37.89006 -1.01272 2530 ft 203 kts 225°
2026-04-20 09:42 37.88023 -1.02538 2483 ft 197 kts 225°
2026-04-20 09:42 37.87107 -1.03719 2285 ft 178 kts 224°
2026-04-20 09:42 37.86255 -1.04820 2066 ft 171 kts 225°
2026-04-20 09:43 37.85472 -1.05830 1862 ft 149 kts 225°
2026-04-20 09:43 37.84778 -1.06724 1672 ft 140 kts 225°
2026-04-20 09:43 37.84093 -1.07609 1469 ft 141 kts 225°
2026-04-20 09:43 37.83410 -1.08489 1293 ft 140 kts 225°
2026-04-20 09:44 37.82729 -1.09368 1099 ft 139 kts 225°
2026-04-20 09:44 37.82054 -1.10238 914 ft 138 kts 225°
2026-04-20 09:44 37.81387 -1.11098 727 ft 136 kts 225°
2026-04-20 09:44 37.80768 -1.11895 651 ft 114 kts 225°
2026-04-20 09:45 37.80428 -1.12332 651 ft 45 kts 225°
2026-04-20 09:45 37.80200 -1.12627 650 ft 42 kts 226°
2026-04-20 09:45 37.80020 -1.12869 650 ft 30 kts 233°
2026-04-20 09:45 37.79935 -1.13036 653 ft 20 kts 243°
2026-04-20 09:46 37.79907 -1.13205 652 ft 20 kts 290°
2026-04-20 09:46 37.80004 -1.13200 652 ft 14 kts 40°
2026-04-20 09:46 37.80064 -1.13124 652 ft 12 kts 39°
2026-04-20 09:46 37.80141 -1.13116 652 ft 13 kts 325°
2026-04-20 09:47 37.80188 -1.13157 652 ft 9 kts 344°
2026-04-20 09:47 37.80247 -1.13122 653 ft 11 kts 45°
2026-04-20 09:47 37.80304 -1.13050 652 ft 10 kts 40°
2026-04-20 09:47 37.80357 -1.13067 652 ft 7 kts 317°
2026-04-20 09:48 37.80375 -1.13088 654 ft 0 kts 317°